ATLAS 5 CENTAUR DEB, 43970

Orbit data source: Space-Track

ATLAS 5 CENTAUR DEB, 43970 is space debris in HEO originally from a launch on Wed, 17 Sep 2014 UTC launched from the Air Force Eastern Test Range (AFETR). Debris objects in space refer to the collection of defunct objects orbiting the Earth. Examples of debris include non-operational satellites, rocket bodies, and fragments generated from explosions, collisions, or faulty payload assembly.

Loading next visibility...
Identifier
43970, 2014-055Z
Orbit
HEO
Country
Flag of USUS
Related business
Flag of USUnited Launch Alliance/Lockheed Martin (US)
Manufacturer
Unknown
Mission
Spacecraft
Bus & Motor
Unknown
Mass
Unknown
Launch date (UTC)
2014-09-17 (11 years ago)
Launch vehicle
Unknown
Launch site
Air Force Eastern Test Range (AFETR)
Object type
Payload
Rocket body
Debris
Shape & HBR
Unknown shape, 1.1 m
Radar Cross Section
Small (<0.1 m²)

Expand to show TLE details & history
Last TLE update: 2 days ago

TLE from 2 days ago
0 ATLAS 5 CENTAUR DEB
1 43970U 14055Z   26070.95346543 -.00000125  00000-0  00000+0 0  9990
2 43970  20.4634 136.6348 4777922 179.4771 181.2987  1.90355128 52321
Epoch: 2026-03-11T22:52Z
TLE epoch observation values (Epoch: 2026-03-11T22:52:59.413Z)
Latitude
0.00006°
Longitude
-16.19723°
Altitude
34,267.938 km
Speed
2.263 km/s
True Right ascension
09h 06m 38s
True Declination
0° 00' 00"
Sunlit
Object was in daylight at epoch
Visualization orbit readout
Latitude
Unknown
Longitude
Unknown
Altitude
Unknown
Speed
Unknown
Apparent Right ascension
Unknown
Apparent Declination
Unknown
Sunlit
N/A
Visualization observer readout
Local Sidereal Time
15:49:18
Azimuth
Unknown
Elevation
Unknown
Doppler factor
Unknown
Orbital elements
Apogee altitude
34,266.466 km
Perigee altitude
7,984.457 km
Semi-major axis
27,503.598 km
Eccentricity
0.47779
Inclination
20.4634°
RAAN
136.6348°
Arg. of periapsis
179.4771°
True anomaly
180.52242°
Mean anomaly
181.2987°
Eccentric anomaly
180.87882°
Mean motion
0.47584 °/min
Orbital period
756.56 mins
BSTAR
0
Loading maneuver chart data...
Computing Atmospheric mass density...

Documentation

Showing up to 5 results
|